Back to catalog

STARLINK-36449

AliveCommunicationsVLEO
NORAD 67308·PAYLOAD·🇺🇸 United States

Launched Jan 4, 2026 from Cape Canaveral Space Force Station

Loading…

Next Passes (next 24 hours)

TLE

FreshSource: CelesTrak SupGP

Epoch: Sep 14, 2026, 14:36 UTC

1 67308C 26002D   26257.60881944 -.00000271  00000+0 -98036-5 0  2575
2 67308  43.0039 338.3545 0001385 279.7154   9.0927 15.27564363    18

Track STARLINK-36449 in real time with AllMySat

Download on the App Store